Location: downtown San Diego
(32.7310°N, 117.1990°W)
Time: 17:56:40
(UTC-07:00)

Cosmos 1437 - Pass Details

Date: 19 May 2017
Orbit: 409 x 417 km, 81.2° (Epoch: 26 May)

Event Time Altitude Azimuth Distance (km) Brightness Sun altitude
Exits shadow 21:39:21 62° 264° (W) 464 3.0 -21.0°
Maximum altitude 21:39:28 63° 278° (W) 460 3.0 -21.1°
Drops below altitude 10° 21:42:39 10° 1° (N) 1,479 6.1 -21.5°
Sets 21:44:42 0° 5° (N) 2,346 7.1 -21.9°
